Regional Weather Roundup
Issued by NWS

Home | Current Version | Previous Version | Graphics & Text | Print | Product List | Glossary On
Versions: 1 2 3 4 5 6 7 8 9 10 11 12 13 14 15 16 17 18 19 20 21 22 23 24 25 26 27 28 29 30 31 32 33 34 35 36 37 38 39 40 41 42 43 44 45 46 47 48 49 50
000
ASUS45 KBOU 081707
RWRCO

WEATHER ROUNDUP FOR COLORADO
NATIONAL WEATHER SERVICE DENVER/BOULDER CO
1000 AM MST MON FEB 08 2016

NOTE: "FAIR" INDICATES FEW OR NO CLOUDS BELOW 12000 FEET WITH NO
SIGNIFICANT WEATHER AND/OR OBSTRUCTIONS TO VISIBILITY.

COZ001>005-013-030-031-081800-
...NORTHWEST COLORADO...

CITY           SKY/WX    TMP DP  RH WIND       PRES   REMARKS
CRAIG          CLOUDY     7   4  87 NW3       30.63R
HAYDEN         CLOUDY    19  10  68 SE8       30.59S WCI   9
MEEKER         CLOUDY    16  10  77 CALM      30.60R
MOUNT WERNER   NOT AVBL
STEAMBOAT SPGS CLOUDY    15  12  85 CALM      30.59S
WALDEN         CLOUDY    21  12  68 CALM      30.53R
$$

COZ006>008-011-081800-
...WEST CENTRAL VALLEYS...

CITY           SKY/WX    TMP DP  RH WIND       PRES   REMARKS
GRAND JUNCTION CLOUDY    22  19  89 CALM      30.61S
MONTROSE       CLOUDY    28  15  58 CALM      30.62R
EAGLE          SUNNY     27  18  69 CALM      30.66R
RIFLE          CLOUDY    20  12  71 CALM      30.64R
DELTA          CLOUDY    28  18  66 NE5       30.63S WCI  23
NUCLA          CLOUDY    28  19  69 CALM      30.60S
$$

COZ017>023-064>068-081800-
...SOUTHWEST COLORADO...

CITY           SKY/WX    TMP DP  RH WIND       PRES   REMARKS
DURANGO        CLOUDY    24  16  71 CALM      30.50S
CORTEZ         CLOUDY    35  19  52 SE3       30.50S
PAGOSA SPRINGS CLOUDY    28  26  91 S6        30.48F WCI  21
TELLURIDE      CLOUDY    32  13  45 CALM      30.54F
WOLF CREEK PAS CLOUDY    30  10  43 NE16      30.57S WCI  19
$$

COZ009-010-012-014-032>034-037-058>063-081800-
...CENTRAL COLORADO...

CITY           SKY/WX    TMP DP  RH WIND       PRES   REMARKS
ASPEN          CLOUDY    28  13  53 CALM      30.58R
BUENA VISTA    CLOUDY    36  14  39 E5        30.47R
COPPER MTN     CLOUDY    23  12  63 W15G23    30.55R WCI  10
BERTHOUD PASS  CLOUDY    12   3  67 NW32G39   30.49R HAZE    WCI -10
COTTONWOOD PAS CLOUDY    37  10  32 CALM      30.49R
GUNNISON       CLOUDY    -2 -15  55 SE6       30.63R WCI -14
KREMMLING      CLOUDY    23  10  58 CALM      30.59S
LEADVILLE      CLOUDY    27  11  51 NW16G25   30.51R WCI  15
MONARCH PASS   CLOUDY    18  10  73 SW20G28   30.62R WCI   1
SALIDA         NOT AVBL
SUNLIGHT       CLOUDY    25  19  80 N7          N/A  WCI  17
WILKERSON PASS CLOUDY    28  14  54 N20G38    30.44S WCI  15
$$

COZ069>075-081800-
...SAN LUIS VALLEY/SANGRE DE CRISTO MOUNTAINS...

CITY           SKY/WX    TMP DP  RH WIND       PRES   REMARKS
ALAMOSA        CLOUDY    30  14  51 SW6       30.49R WCI  24
LA VETA PASS   SUNNY     28  10  47 MISG      30.45R
SAGUACHE       CLOUDY    36  16  44 N13       30.49R
$$

COZ035-036-038>040-081800-
...NORTHERN COLORADO FRONT RANGE...

CITY           SKY/WX    TMP DP  RH WIND       PRES   REMARKS
DENVER INTL AP CLOUDY    30  17  58 S5        30.40R WCI  25
DMNS CITY PARK   N/A     37  17  45 SE7       30.40F
AURORA         PTSUNNY   39  18  43 CALM      30.41R
FRONT RANGE AP MOSUNNY   30  18  59 S5        30.40R WCI  25
ERIE MUNI ARPT CLOUDY    31  19  61 CALM      30.41S
BOULDER MUN AP CLOUDY    34  21  60 CALM      30.39F
CENTENNIAL     PTSUNNY   36  19  50 S3        30.40R
BROOMFIELD     MOSUNNY   36  21  55 S6        30.41R
FORT COLLINS   CLOUDY    21  16  79 CALM      30.41F
LONGMONT       CLOUDY    30  19  62 CALM      30.42S
$$

COZ041-046-047-076>085-087-088-081800-
...PIKES PEAK/PALMER DIVIDE AND SOUTHERN FOOTHILLS...

CITY           SKY/WX    TMP DP  RH WIND       PRES   REMARKS
COLO. SPRINGS  CLOUDY    27  19  72 VRB3      30.41R
A. F. ACADEMY  CLOUDY    31  19  61 S12       30.38R WCI  22
SCHRIEVER AFB  NOT AVBL
ELLICOTT       NOT AVBL
FALCON         CLOUDY    36  17  45 NE9       30.40R
FORT CARSON    SUNNY     25  20  79 S5        30.41R WCI  20
LIMON          CLOUDY    28  17  63 SW7       30.40R WCI  21
MONUMENT HILL  CLOUDY    28  16  59 NW6       30.40S WCI  22
TRINIDAD       SUNNY     35  19  52 SE3       30.43R
$$

COZ042>045-048>051-090-091-081800-
...NORTHEAST COLORADO...

CITY           SKY/WX    TMP DP  RH WIND       PRES   REMARKS
GREELEY ARPT   CLOUDY    25  18  74 NW3       30.43S
AKRON          CLOUDY    26  17  68 NW15      30.39R WCI  14
BURLINGTON     CLOUDY    29  17  61 NW24      30.37S WCI  15
WRAY           CLOUDY    34  16  47 NW17      30.40R WCI  24
STERLING       CLOUDY    32  21  64 N14       30.39F WCI  22
HOLYOKE        CLOUDY    36  19  51 NW13G20   30.38R
FORT MORGAN    CLOUDY    29  20  69 W10       30.41S WCI  19
$$

COZ086-089-092>099-081800-
...SOUTHEAST COLORADO...

CITY           SKY/WX    TMP DP  RH WIND       PRES   REMARKS
PUEBLO         SUNNY     34  22  61 CALM      30.46R
LA JUNTA       SUNNY     35  22  58 W12       30.46R WCI  27
LAMAR          SUNNY     36  21  54 W17       30.43R
SPRINGFIELD      N/A     40  16  37 NW15G23   30.44R
$$



USA.gov is the U.S. government's official web portal to all federal, state and local government web resources and services.